Zurück zum Katalog

QIANFAN-87

AktivKommunikationPO
NORAD 63173·PAYLOAD·🇨🇳 China

Gestartet Mar 11, 2025 von Wenchang Space Launch Site

Loading…

Nächste Überflüge (nächste 24 Stunden)

TLE

AktuellSource: Space-Track

Epoche: Sep 14, 2026, 22:19 UTC

1 63173U 25046Q   26257.93007970  .00000015  00000-0  36712-5 0  9994
2 63173  88.9649 291.2173 0013192  55.5463 304.6933 13.51031994 84775

Verfolge QIANFAN-87 in Echtzeit mit AllMySat

Download on the App Store